#timestamp,LO_Frequency,Hit,StdDev 
1609621215.1,286046997.9,N
1609621235.9,286046995.0,P
1609621255.7,286046997.9,N
1609621275.5,286046997.0,N
1609621295.4,286046998.4,N
1609621315.2,286047001.2,N
1609621335.1,286046998.8,N
1609621336.0,286046998.8,N
1609621355.8,286046998.5,N
1609621375.6,286047001.1,N
1609621395.5,286046999.3,N
1609621415.3,286046998.3,N
1609621435.2,286046997.2,N
1609621455.9,286046999.1,N
1609621475.7,286046999.0,N
1609621495.6,286046998.3,N
1609621515.4,286046997.0,N
1609621535.2,286046998.3,N
1609621555.1,286047000.6,N
1609621556.0,286047000.6,N
1609621575.8,286046999.0,N
1609621595.7,286047002.1,N
1609621615.5,286047000.1,N
1609621635.3,286047002.8,N
1609621655.2,286047002.5,N
1609621675.0,286047003.3,N
1609621675.9,286047003.3,N
1609621695.8,286047005.1,N
1609621715.6,286047005.7,N
1609621735.4,286047005.8,N
1609621755.3,286047005.7,N
1609621775.1,286047004.0,N
1609621795.9,286047000.1,N
1609621815.7,286047002.7,N
1609621835.5,286047002.8,N
1609621855.4,286047000.2,N
1609621875.2,286047001.0,N
1609621895.0,286047002.4,N
1609621895.9,286047002.4,N
1609621915.8,286047002.6,N
1609621935.6,286047002.7,N
1609621955.5,286047000.9,N
1609621975.3,286046998.5,N
1609621995.1,286047002.4,N
1609622015.9,286047001.6,N
1609622035.7,286047001.7,N
1609622055.6,286047001.8,N
1609622075.4,286047002.2,N
1609622095.2,286047001.1,N
1609622115.1,286046999.7,N
1609622116.0,286046999.7,N
1609622135.8,286047002.3,N
1609622155.7,286047002.3,N
1609622175.5,286047002.2,N
1609622195.3,286047002.6,N
1609622215.2,286047002.1,N
1609622235.0,286046999.7,N
1609622235.9,286046999.7,N
1609622255.7,286047002.3,N
1609622275.6,286047002.7,N
1609622295.4,286046998.1,N
1609622315.3,286047001.1,N
1609622335.1,286046998.6,N
1609622355.8,286047000.3,N
1609622375.7,286047000.5,N
1609622395.5,286047002.3,N
1609622415.4,286046999.7,N
1609622435.2,286047000.6,N
1609622455.0,286047001.2,N
1609622455.9,286047001.2,N
1609622475.8,286046999.3,N
1609622495.6,286046996.8,N
1609622515.5,286046997.9,N
1609622535.3,286046997.3,N
1609622555.1,286046995.3,N
1609622575.9,286046997.5,N
1609622595.7,286046997.9,N
1609622615.5,286046995.9,N
1609622635.4,286046995.9,N
1609622655.2,286046998.0,N
1609622675.1,286046997.1,N
1609622676.0,286046997.1,N
1609622695.8,286046999.1,N
1609622715.6,286046998.9,N
1609622735.5,286046999.5,N
1609622755.3,286046996.7,N
1609622775.1,286046997.6,N
1609622795.9,286046997.7,N
1609622815.7,286046997.2,N
1609622835.6,286046999.1,N
1609622855.4,286046999.5,N
1609622875.2,286046997.6,N
1609622895.1,286046997.7,N
1609622896.0,286046997.7,N
1609622915.8,286046999.4,N
1609622935.7,286046997.1,N
1609622955.5,286047001.1,N
1609622975.3,286047001.4,N
1609622995.2,286047001.9,N
1609623015.0,286046999.8,N
1609623015.9,286046999.8,N
1609623035.7,286047001.2,N
1609623055.6,286046999.8,N
1609623075.4,286047000.3,N
1609623095.3,286047000.0,N
1609623115.1,286047002.4,N
1609623135.8,286047002.3,N
1609623155.7,286047004.4,N
1609623175.5,286047001.6,N
1609623195.4,286047004.3,N
1609623215.2,286047001.8,N
1609623235.0,286047003.9,N
1609623235.9,286047003.9,N
1609623255.8,286047002.6,N
1609623275.6,286047002.8,N
1609623295.4,286047000.9,N
1609623315.3,286046998.7,N
1609623335.1,286046998.7,N
1609623355.9,286047001.0,N
1609623375.7,286046998.6,N
1609623395.5,286047001.3,N
1609623415.4,286047004.3,N
1609623435.2,286047003.6,N
1609623455.1,286047005.6,N
1609623456.0,286047005.6,N
1609623475.8,286047005.9,N
1609623495.6,286047004.4,N
1609623515.5,286047004.0,N
1609623535.3,286047001.5,N
1609623555.2,286047001.5,N
1609623575.9,286047001.8,N
1609623595.7,286047003.9,N
1609623615.6,286047002.7,N
1609623635.4,286047002.1,N
1609623655.2,286047001.4,N
1609623675.1,286047001.3,N
1609623676.0,286047001.3,N
1609623695.8,286047004.4,N
1609623715.7,286047003.5,N
1609623735.5,286047006.0,Y
1609623755.3,286047006.0,P
1609623775.2,286047005.4,P
1609623795.0,286047007.6,P
1609623795.9,286047007.6,Y
1609623815.8,286047001.1,P
1609623835.6,286046998.1,N
1609623855.4,286046998.4,N
1609623875.3,286046997.3,N
1609623895.1,286046996.9,N
1609623915.9,286046996.9,N
1609623935.7,286046996.7,N
1609623955.5,286046996.5,N
1609623975.4,286046997.9,N
1609623995.2,286046995.8,N
1609624015.0,286046995.3,N
1609624015.9,286046995.3,N
1609624035.8,286046996.4,N
1609624055.6,286046995.8,N
1609624075.5,286046996.2,N
1609624095.3,286046996.1,N
1609624115.1,286046995.2,N
1609624135.9,286046996.1,N
1609624155.7,286046995.8,N
1609624175.5,286046993.4,N
1609624195.4,286046994.2,N
1609624215.2,286046993.5,N
1609624235.1,286046993.5,N
1609624236.0,286046993.5,N
1609624255.8,286046993.4,N
1609624275.6,286046993.4,N
1609624295.5,286046991.7,Y
1609624315.3,286046997.4,P
1609624335.2,286046997.3,P
1609624355.9,286046997.3,P
1609624375.7,286046997.2,Y
1609624395.6,286047000.6,P
1609624415.4,286046999.9,N
1609624435.3,286047002.0,N
1609624455.1,286046999.8,N
1609624456.0,286046999.8,N
1609624475.8,286046999.7,N
1609624495.7,286047000.6,N
1609624515.5,286047000.6,N
1609624535.3,286046998.3,N
1609624555.2,286046999.5,N
1609624575.0,286046999.5,N
1609624575.9,286046999.5,N
1609624595.8,286046996.8,N
1609624615.6,286046998.7,N
1609624635.4,286047001.1,N
1609624655.3,286047002.7,N
1609624675.1,286047000.8,N
1609624695.9,286047001.0,N
1609624715.7,286047000.7,N
1609624735.5,286046998.6,N
1609624755.4,286046999.3,N
1609624775.2,286046998.1,N
1609624795.0,286047000.3,N
1609624795.9,286047000.3,N
